[[{"header":{"parameterUnit":"m.s-1","parameterCategory":2,"la1":30.2991,"la2":30.254,"lo1":-89.0895,"lo2":-89.0444,"dy":0.0017,"dx":0.0017,"nx":28,"ny":28,"refTime":"2024-08-03T09:00:00:Z","depth":"0","parameterNumber":2,"parameterNumberName":"U-component_of_CURRENTS"},"data":[0,0,0,0,0,0,0,0,0,0,0,0,0,0,0,0,0,0,0,0,0,0,0,0,0,0,0,0,0,0,0,0,0,0,0,0,0,0,0,0,0,0,0,0,0,0,0,0,0,0,0,0,0,0,0,0,0,0,-0.1983,-0.1984,0,-0.1986,-0.1985,-0.1985,-0.1938,-0.1937,-0.1936,-0.1935,-0.1896,-0.1896,-0.1895,0,0,0,0,0,0,0,0,0,0,0,0,0,-0.1952,-0.1952,-0.1983,-0.1984,-0.1984,-0.1986,-0.1985,-0.1985,-0.1938,-0.1937,-0.1936,-0.1935,-0.1896,-0.1896,-0.1895,0,0,0,0,0,0,0,0,0,0,0,0,0,-0.1955,-0.1952,-0.1983,-0.1965,-0.1964,-0.1986,-0.1985,-0.1984,-0.1938,-0.1937,-0.1936,-0.1935,-0.1896,-0.1896,-0.1895,-0.1915,0,0,-0.1894,-0.1894,0,0,0,0,0,0,0,0,-0.1955,-0.1956,-0.1967,-0.1967,-0.1965,-0.1965,-0.196,-0.1961,-0.1938,-0.1942,-0.1935,-0.1934,-0.192,-0.1917,-0.1913,-0.1913,-0.1911,-0.1894,-0.1893,-0.1893,-0.1893,0,0,0,0,0,0,0,-0.1955,-0.1956,-0.1978,-0.1968,-0.1967,-0.1962,-0.1961,-0.196,-0.1932,-0.1942,-0.194,-0.1949,-0.1918,-0.1914,-0.1912,-0.1911,-0.1894,-0.1893,-0.1893,-0.1893,-0.196,-0.1962,0,0,0,0,0,0,-0.1967,-0.1956,-0.1979,-0.1979,-0.1964,-0.1964,-0.1962,-0.1962,-0.1933,-0.193,-0.195,-0.1947,-0.1915,-0.1912,-0.191,-0.1947,-0.1893,-0.1893,-0.1892,-0.1958,-0.196,-0.1963,0,0,0,0,0,0,-0.1966,-0.1968,-0.1979,-0.1972,-0.1974,-0.1966,-0.1966,-0.1963,-0.1955,-0.1941,-0.1935,-0.1947,-0.1914,-0.1911,-0.1918,-0.1944,-0.1893,-0.1892,-0.1955,-0.1959,-0.1961,-0.2011,0,0,0,0,0,0,-0.1965,-0.1968,-0.1968,-0.1973,-0.1975,-0.1998,-0.1968,-0.1964,-0.1966,-0.1961,-0.1937,-0.1932,-0.1913,-0.1919,-0.1918,-0.1943,-0.1892,-0.1953,-0.1957,-0.196,-0.2007,-0.2015,-0.2023,0,0,0,0,0,-0.1963,-0.1977,-0.1968,-0.1971,-0.1977,-0.1999,-0.2,-0.1986,-0.1967,-0.1973,-0.1958,-0.1932,-0.1943,-0.192,-0.1918,-0.1943,-0.1951,-0.1956,-0.196,-0.2003,-0.2014,-0.2022,0,0,0,0,0,0,-0.196,-0.1975,-0.1964,-0.1979,-0.199,-0.1994,-0.2002,-0.1992,-0.1984,-0.1974,-0.1951,-0.1946,-0.1971,-0.1955,-0.193,-0.1979,-0.1947,-0.1951,-0.198,-0.199,-0.1998,-0.2019,-0.1891,0,0,0,0,0,-0.1962,-0.1975,-0.1987,-0.1997,-0.2006,-0.2003,-0.2008,-0.2,-0.1999,-0.1993,-0.1981,-0.1976,-0.1991,-0.1986,-0.1995,-0.201,-0.201,-0.2031,-0.2039,-0.2046,-0.2065,-0.2085,-0.2096,-0.1978,-0.1978,-0.1978,0,0,-0.1962,-0.1974,-0.1979,-0.1998,-0.2002,-0.2018,-0.2001,-0.2015,-0.2026,-0.1992,-0.2001,-0.2006,-0.2006,-0.2031,-0.204,-0.2015,-0.2081,-0.2052,-0.2057,-0.2073,-0.2091,-0.2102,-0.2112,-0.1981,-0.1981,-0.198,0,0,-0.1973,-0.1982,-0.1992,-0.2009,-0.2026,-0.2033,-0.2039,-0.2046,-0.2047,-0.2061,-0.2054,-0.209,-0.2075,-0.2105,-0.2112,-0.2177,-0.2132,-0.216,-0.2203,-0.2222,-0.2231,-0.2239,-0.2254,-0.2264,-0.2152,-0.2152,-0.2152,0,-0.1966,-0.1981,-0.2,-0.2018,-0.2034,-0.2041,-0.2055,-0.2069,-0.2075,-0.2091,-0.2069,-0.2117,-0.2126,-0.2182,-0.2205,-0.2198,-0.2179,-0.2158,-0.223,-0.2239,-0.2246,-0.226,-0.2269,-0.2155,-0.2155,-0.2154,-0.2154,0,-0.1984,-0.1995,-0.201,-0.2031,-0.2056,-0.2073,-0.2101,-0.2121,-0.2122,-0.2135,-0.2188,-0.2211,-0.2238,-0.2254,-0.2244,-0.231,-0.227,-0.2244,-0.22,-0.2261,-0.2271,-0.228,-0.2159,-0.2158,-0.2157,-0.2157,0,0,-0.1959,-0.2008,-0.201,-0.2015,-0.2062,-0.2077,-0.2125,-0.2166,-0.2187,-0.2217,-0.2251,-0.2323,-0.2331,-0.2345,-0.2351,-0.2377,-0.243,-0.2323,-0.2322,-0.2328,-0.2447,-0.2306,-0.2301,-0.2383,-0.2384,-0.2386,-0.2432,0,-0.1956,-0.1982,-0.2019,-0.2042,-0.2054,-0.2098,-0.2137,-0.2181,-0.2213,-0.225,-0.2313,-0.2344,-0.2363,-0.2366,-0.2409,-0.242,-0.2454,-0.242,-0.2397,-0.2398,-0.2255,-0.2308,-0.2103,-0.2115,-0.244,-0.2442,-0.2443,0,-0.1953,-0.1971,-0.1993,-0.2034,-0.2045,-0.2065,-0.2128,-0.2161,-0.224,-0.2264,-0.2331,-0.2357,-0.2444,-0.2425,-0.2509,-0.2464,-0.2473,-0.2483,-0.2483,-0.2342,-0.2272,-0.2109,-0.2119,-0.2081,-0.2456,-0.2455,-0.2454,0,-0.1911,-0.1949,-0.1963,-0.1978,-0.2033,-0.2054,-0.2083,-0.216,-0.2189,-0.2267,-0.2287,-0.2385,-0.2413,-0.2462,-0.2517,-0.2489,-0.258,-0.2541,-0.244,-0.243,-0.2252,-0.2222,-0.2215,-0.2608,-0.2607,-0.2607,-0.2607,0,-0.1893,-0.19,-0.1936,-0.1942,-0.1951,-0.2008,-0.203,-0.2082,-0.2152,-0.2192,-0.2277,-0.2322,-0.2413,-0.2478,-0.2521,-0.2511,-0.2591,-0.2465,-0.2435,-0.2262,-0.2234,-0.2188,-0.2255,-0.2609,-0.2609,-0.2608,-0.2608,0,-0.1848,-0.1877,-0.1882,-0.1922,-0.1928,-0.1931,-0.1976,-0.1997,-0.2071,-0.2125,-0.2147,-0.2268,-0.234,-0.2438,-0.2519,-0.2486,-0.2456,-0.2496,-0.2287,-0.2229,-0.2024,-0.2102,-0.2143,-0.2082,-0.2353,-0.235,-0.2347,0,-0.1827,-0.1825,-0.1843,-0.1833,-0.1846,-0.1854,-0.1864,-0.1941,-0.1974,-0.2094,-0.2118,-0.2211,-0.2267,-0.2334,-0.2295,-0.2318,-0.2384,-0.213,-0.2049,-0.1996,-0.2063,-0.2136,-0.2089,-0.1849,-0.1843,-0.1837,-0.1833,0,-0.1773,-0.1779,-0.1779,-0.1761,-0.1757,-0.1758,-0.1783,-0.1801,-0.1906,-0.1958,-0.2042,-0.2092,-0.2119,-0.2022,-0.2018,-0.2015,-0.203,-0.2013,-0.2017,-0.1723,-0.1748,-0.1676,-0.1856,-0.1785,-0.179,-0.1793,-0.1796,-0.1798,-0.1711,-0.1699,-0.1692,-0.1673,-0.1671,-0.1664,-0.164,-0.1692,-0.173,-0.1786,-0.1909,-0.1902,-0.1806,-0.1733,-0.1713,-0.1504,-0.17,-0.1435,-0.1555,-0.1649,-0.1525,-0.1593,-0.1442,-0.1444,-0.1447,-0.1449,-0.145,0,-0.1624,-0.1621,-0.1602,-0.1578,-0.1551,-0.1575,-0.1585,-0.1553,-0.1567,-0.1596,-0.1643,-0.1532,-0.1388,-0.131,-0.1101,-0.1052,-0.1046,-0.1089,-0.1153,-0.1139,-0.1212,-0.1114,-0.081,-0.081,-0.081,-0.081,-0.081,-0.081,-0.1571,-0.1534,-0.1536,-0.1462,-0.1446,-0.1363,-0.1347,-0.1322,-0.1301,-0.1224,-0.1144,-0.1131,-0.1062,-0.1126,-0.0956,-0.0887,-0.0947,-0.0924,-0.1061,-0.1104,-0.1146,-0.1185,-0.1103,-0.0801,-0.0802,-0.0832,-0.0833,-0.0834]},{"header":{"parameterUnit":"m.s-1","parameterCategory":2,"la1":30.2991,"la2":30.254,"lo1":-89.0895,"lo2":-89.0444,"dy":0.0017,"dx":0.0017,"nx":28,"ny":28,"refTime":"2024-08-03T09:00:00:Z","depth":"0","parameterNumber":3,"parameterNumberName":"V-component_of_CURRENTS"},"data":[0,0,0,0,0,0,0,0,0,0,0,0,0,0,0,0,0,0,0,0,0,0,0,0,0,0,0,0,0,0,0,0,0,0,0,0,0,0,0,0,0,0,0,0,0,0,0,0,0,0,0,0,0,0,0,0,0,0,-0.0855,-0.0855,0,-0.0803,-0.0803,-0.0802,-0.0768,-0.0768,-0.0767,-0.0767,-0.0673,-0.0671,-0.0669,0,0,0,0,0,0,0,0,0,0,0,0,0,-0.0881,-0.0881,-0.0856,-0.0855,-0.0854,-0.0803,-0.0803,-0.0802,-0.0768,-0.0768,-0.0767,-0.0767,-0.0674,-0.0672,-0.0669,0,0,0,0,0,0,0,0,0,0,0,0,0,-0.0855,-0.0881,-0.0856,-0.083,-0.0827,-0.0803,-0.0803,-0.0802,-0.0768,-0.0768,-0.0767,-0.0767,-0.0675,-0.0672,-0.0669,-0.0659,0,0,-0.0659,-0.0657,0,0,0,0,0,0,0,0,-0.0856,-0.0854,-0.0834,-0.0832,-0.0828,-0.079,-0.0777,-0.0751,-0.0768,-0.0792,-0.0767,-0.0767,-0.0708,-0.0702,-0.0696,-0.0655,-0.0651,-0.0658,-0.0656,-0.0655,-0.0654,0,0,0,0,0,0,0,-0.0858,-0.0856,-0.0836,-0.0834,-0.083,-0.0805,-0.0801,-0.0772,-0.0754,-0.079,-0.0787,-0.0779,-0.0706,-0.0699,-0.0693,-0.0649,-0.0658,-0.0656,-0.0654,-0.0652,-0.061,-0.0611,0,0,0,0,0,0,-0.0865,-0.0858,-0.0838,-0.0835,-0.0839,-0.0805,-0.0801,-0.0804,-0.0755,-0.0747,-0.078,-0.0778,-0.0705,-0.0697,-0.069,-0.0689,-0.0655,-0.0652,-0.065,-0.0609,-0.061,-0.0611,0,0,0,0,0,0,-0.0866,-0.0864,-0.084,-0.0843,-0.0838,-0.0805,-0.0809,-0.0803,-0.0795,-0.0747,-0.0739,-0.0776,-0.0704,-0.0695,-0.0673,-0.0684,-0.065,-0.0647,-0.0608,-0.061,-0.0611,-0.0677,0,0,0,0,0,0,-0.0867,-0.0865,-0.0874,-0.0844,-0.0838,-0.0835,-0.0809,-0.0803,-0.079,-0.0787,-0.0742,-0.0732,-0.0703,-0.0679,-0.067,-0.0679,-0.0645,-0.0607,-0.0609,-0.061,-0.0674,-0.068,-0.0686,0,0,0,0,0,-0.0868,-0.0884,-0.0875,-0.0873,-0.0851,-0.0835,-0.0831,-0.0806,-0.079,-0.0795,-0.0766,-0.0734,-0.0683,-0.0677,-0.0667,-0.0675,-0.0607,-0.0608,-0.061,-0.0671,-0.0679,-0.0686,0,0,0,0,0,0,-0.0903,-0.0881,-0.0871,-0.0881,-0.0862,-0.0829,-0.0829,-0.0809,-0.079,-0.0785,-0.0741,-0.0731,-0.0716,-0.0689,-0.0683,-0.0669,-0.0641,-0.0641,-0.069,-0.0697,-0.0703,-0.0736,-0.0642,0,0,0,0,0,-0.0915,-0.092,-0.0893,-0.0901,-0.0894,-0.0862,-0.0853,-0.0835,-0.081,-0.0801,-0.0767,-0.0737,-0.0717,-0.0702,-0.0678,-0.0667,-0.0666,-0.0667,-0.0673,-0.0678,-0.0699,-0.0715,-0.0725,-0.0617,-0.0617,-0.0617,0,0,-0.0928,-0.0919,-0.092,-0.0908,-0.0891,-0.0894,-0.0856,-0.0845,-0.0854,-0.0793,-0.0793,-0.0754,-0.0719,-0.0711,-0.0702,-0.0688,-0.0708,-0.0681,-0.0686,-0.0704,-0.0718,-0.0729,-0.0738,-0.0619,-0.0618,-0.0618,0,0,-0.0953,-0.0951,-0.0959,-0.0951,-0.093,-0.0917,-0.0916,-0.0884,-0.088,-0.0871,-0.0833,-0.0807,-0.077,-0.0751,-0.0737,-0.0763,-0.074,-0.0748,-0.0804,-0.0818,-0.0828,-0.0836,-0.0848,-0.0857,-0.0752,-0.0752,-0.0752,0,-0.0972,-0.0983,-0.0959,-0.0966,-0.0974,-0.0932,-0.0951,-0.094,-0.0907,-0.0914,-0.0882,-0.0845,-0.0796,-0.0805,-0.0805,-0.0778,-0.0784,-0.0777,-0.0828,-0.0836,-0.0844,-0.0854,-0.0863,-0.0755,-0.0755,-0.0754,-0.0754,0,-0.0999,-0.1011,-0.1017,-0.1021,-0.1027,-0.1035,-0.1022,-0.1025,-0.1008,-0.0992,-0.0992,-0.0935,-0.0918,-0.0889,-0.0849,-0.0876,-0.0863,-0.0834,-0.0813,-0.0859,-0.0866,-0.0875,-0.076,-0.0759,-0.0758,-0.0757,0,0,-0.1035,-0.1038,-0.104,-0.106,-0.1062,-0.107,-0.11,-0.1116,-0.1143,-0.1103,-0.1141,-0.1079,-0.1042,-0.1025,-0.0971,-0.0967,-0.1,-0.0924,-0.0923,-0.0943,-0.1041,-0.0865,-0.0856,-0.0984,-0.0985,-0.0987,-0.1026,0,-0.1067,-0.1095,-0.1097,-0.1142,-0.116,-0.1163,-0.12,-0.1209,-0.1208,-0.123,-0.1184,-0.1181,-0.1098,-0.1085,-0.1074,-0.1024,-0.1025,-0.0992,-0.0989,-0.0989,-0.0831,-0.0861,-0.0722,-0.073,-0.1034,-0.1035,-0.1036,0,-0.1092,-0.1114,-0.1156,-0.1213,-0.1226,-0.1254,-0.1321,-0.1346,-0.1366,-0.1365,-0.136,-0.132,-0.1307,-0.1227,-0.1197,-0.1183,-0.1124,-0.1078,-0.1078,-0.0899,-0.0826,-0.0732,-0.0733,-0.047,-0.1048,-0.1047,-0.1046,0,-0.1112,-0.1162,-0.1203,-0.1218,-0.1268,-0.131,-0.1347,-0.1382,-0.1415,-0.1448,-0.1465,-0.1455,-0.1435,-0.1394,-0.1266,-0.1252,-0.1227,-0.1198,-0.0992,-0.098,-0.0852,-0.0824,-0.0602,-0.1188,-0.1188,-0.1187,-0.1187,0,-0.114,-0.1173,-0.1217,-0.1235,-0.1311,-0.1344,-0.1422,-0.1452,-0.1505,-0.1545,-0.1527,-0.1547,-0.1472,-0.1428,-0.1337,-0.1176,-0.1285,-0.1012,-0.0977,-0.0867,-0.084,-0.0595,-0.0521,-0.1189,-0.1189,-0.1188,-0.1188,0,-0.113,-0.1157,-0.1205,-0.1277,-0.1308,-0.1357,-0.1452,-0.1504,-0.1551,-0.161,-0.1622,-0.1624,-0.1562,-0.1462,-0.1378,-0.1229,-0.0951,-0.103,-0.0891,-0.0835,-0.0365,-0.0301,-0.0148,-0.0009,-0.0837,-0.0833,-0.0829,0,-0.1121,-0.1138,-0.1216,-0.125,-0.1281,-0.1363,-0.1422,-0.1506,-0.1559,-0.1645,-0.1671,-0.1638,-0.1611,-0.1415,-0.1152,-0.0964,-0.0801,-0.0676,-0.0598,-0.031,-0.0218,-0.0209,-0.0104,-0.0479,-0.0472,-0.0468,-0.0464,0,-0.1098,-0.1116,-0.1149,-0.122,-0.1287,-0.1373,-0.1464,-0.1518,-0.1618,-0.1672,-0.1725,-0.1725,-0.1506,-0.1226,-0.0907,-0.0746,-0.0441,-0.0561,-0.0319,0.0047,0.0117,0.026,-0.0486,-0.0419,-0.0423,-0.0427,-0.0429,-0.0431,-0.1064,-0.1081,-0.1119,-0.1187,-0.1261,-0.1357,-0.1401,-0.1514,-0.1601,-0.1674,-0.172,-0.1697,-0.1243,-0.0781,-0.057,0.0064,-0.0096,0.0253,0.0286,0.0253,0.0472,-0.0147,0.0016,0.0014,0.0013,0.0011,0.001,0,-0.1029,-0.1045,-0.1091,-0.1165,-0.1217,-0.1285,-0.1401,-0.1429,-0.1507,-0.1611,-0.1649,-0.13,-0.078,-0.0295,0.0527,0.087,0.0906,0.1037,0.1072,0.1123,0.0542,0.0656,0.1037,0.1036,0.1036,0.1036,0.1036,0.1035,-0.1006,-0.1024,-0.1052,-0.1101,-0.1145,-0.1194,-0.1239,-0.1299,-0.1356,-0.1342,-0.1267,-0.1237,-0.0477,0.0727,0.1527,0.1606,0.1819,0.1797,0.1864,0.1494,0.1423,0.1355,0.1487,0.2035,0.2036,0.2467,0.2472,0.2475]}],[{"header":{"parameterUnit":"m.s-1","parameterCategory":2,"la1":30.2991,"la2":30.254,"lo1":-89.0895,"lo2":-89.0444,"dy":0.0017,"dx":0.0017,"nx":28,"ny":28,"refTime":"2024-08-03T09:00:00:Z","depth":"2","parameterNumber":2,"parameterNumberName":"U-component_of_CURRENTS"},"data":[0,0,0,0,0,0,0,0,0,0,0,0,0,0,0,0,0,0,0,0,0,0,0,0,0,0,0,0,0,0,0,0,0,0,0,0,0,0,0,0,0,0,0,0,0,0,0,0,0,0,0,0,0,0,0,0,0,0,-0.229,-0.2294,0,-0.2619,-0.2623,-0.2626,-0.2761,-0.276,-0.276,-0.2759,-0.274,-0.274,-0.274,0,0,0,0,0,0,0,0,0,0,0,0,0,-0.2009,-0.2012,-0.2289,-0.2294,-0.2298,-0.2619,-0.2623,-0.2627,-0.2761,-0.276,-0.276,-0.2759,-0.274,-0.274,-0.274,0,0,0,0,0,0,0,0,0,0,0,0,0,-0.221,-0.2012,-0.2289,-0.2406,-0.242,-0.2618,-0.2623,-0.2628,-0.2761,-0.276,-0.276,-0.2759,-0.274,-0.274,-0.274,-0.2751,0,0,-0.2739,-0.2739,0,0,0,0,0,0,0,0,-0.2198,-0.2219,-0.2385,-0.2399,-0.2415,-0.2651,-0.2518,-0.2653,-0.2761,-0.2628,-0.2759,-0.2759,-0.268,-0.2685,-0.2749,-0.275,-0.275,-0.2739,-0.2739,-0.2739,-0.2739,0,0,0,0,0,0,0,-0.2183,-0.2208,-0.2417,-0.2389,-0.2408,-0.2523,-0.2548,-0.2546,-0.2644,-0.264,-0.2651,-0.2693,-0.2686,-0.2749,-0.2748,-0.2749,-0.2739,-0.2739,-0.2739,-0.2739,-0.2775,-0.2776,0,0,0,0,0,0,-0.2139,-0.2193,-0.2406,-0.2427,-0.2306,-0.2527,-0.2556,-0.2573,-0.2653,-0.2668,-0.2693,-0.2698,-0.275,-0.2748,-0.2747,-0.2748,-0.2739,-0.2739,-0.2739,-0.2774,-0.2776,-0.2777,0,0,0,0,0,0,-0.2131,-0.2153,-0.2393,-0.2322,-0.2361,-0.2531,-0.2551,-0.258,-0.2674,-0.2698,-0.2706,-0.2761,-0.2749,-0.2748,-0.2775,-0.2747,-0.2739,-0.2738,-0.2773,-0.2775,-0.2776,-0.2757,0,0,0,0,0,0,-0.2121,-0.2148,-0.2174,-0.2317,-0.2363,-0.2489,-0.2553,-0.2587,-0.2701,-0.2711,-0.2757,-0.2755,-0.2749,-0.2776,-0.2775,-0.2747,-0.2738,-0.2772,-0.2774,-0.2776,-0.2756,-0.2757,-0.2759,0,0,0,0,0,-0.2109,-0.2132,-0.2173,-0.2201,-0.2382,-0.2489,-0.2522,-0.2641,-0.2705,-0.2728,-0.2786,-0.2755,-0.2787,-0.2778,-0.2776,-0.2747,-0.2771,-0.2773,-0.2776,-0.2755,-0.2757,-0.2759,0,0,0,0,0,0,-0.2058,-0.2153,-0.22,-0.226,-0.2359,-0.2512,-0.2568,-0.2661,-0.2742,-0.2751,-0.2782,-0.2782,-0.279,-0.2789,-0.2779,-0.2769,-0.2768,-0.277,-0.2753,-0.2754,-0.2756,-0.2683,-0.2738,0,0,0,0,0,-0.2049,-0.2069,-0.2192,-0.2245,-0.2284,-0.2436,-0.2512,-0.2586,-0.2674,-0.2717,-0.2765,-0.2796,-0.28,-0.2796,-0.2804,-0.2805,-0.28,-0.2785,-0.2786,-0.2787,-0.2731,-0.2717,-0.271,-0.2785,-0.2785,-0.2785,0,0,-0.2057,-0.2107,-0.2131,-0.2233,-0.2321,-0.2375,-0.2478,-0.2574,-0.2624,-0.2689,-0.2768,-0.2804,-0.2808,-0.281,-0.281,-0.2802,-0.2784,-0.279,-0.279,-0.2732,-0.2718,-0.271,-0.2703,-0.2786,-0.2786,-0.2786,0,0,-0.2043,-0.2106,-0.2107,-0.2166,-0.2277,-0.236,-0.2387,-0.2542,-0.2604,-0.2698,-0.2737,-0.2763,-0.2824,-0.2797,-0.2792,-0.2806,-0.2799,-0.2822,-0.2753,-0.2742,-0.2734,-0.2727,-0.2791,-0.2789,-0.2812,-0.2812,-0.2812,0,-0.2053,-0.2069,-0.2135,-0.2146,-0.22,-0.2342,-0.237,-0.2453,-0.2607,-0.2628,-0.2705,-0.2786,-0.28,-0.275,-0.2762,-0.2796,-0.2823,-0.2744,-0.2738,-0.273,-0.2723,-0.2789,-0.2787,-0.2812,-0.2812,-0.2812,-0.2812,0,-0.2035,-0.2055,-0.2062,-0.2103,-0.2161,-0.2213,-0.2312,-0.238,-0.25,-0.2579,-0.2617,-0.2682,-0.2707,-0.273,-0.2752,-0.2694,-0.2747,-0.2749,-0.2722,-0.2713,-0.2787,-0.2785,-0.2811,-0.2811,-0.2811,-0.2811,0,0,-0.2051,-0.2044,-0.2062,-0.2056,-0.2143,-0.2194,-0.2229,-0.2299,-0.2339,-0.2459,-0.2506,-0.2525,-0.2576,-0.2571,-0.2606,-0.2597,-0.2616,-0.2647,-0.2647,-0.2689,-0.2652,-0.2474,-0.2456,-0.2621,-0.2619,-0.2617,-0.2752,0,-0.2033,-0.2016,-0.2031,-0.2049,-0.205,-0.2129,-0.2158,-0.2224,-0.2322,-0.24,-0.2431,-0.2495,-0.2509,-0.2555,-0.2529,-0.2616,-0.2597,-0.2582,-0.2669,-0.2672,-0.2493,-0.244,-0.2216,-0.2293,-0.2751,-0.275,-0.275,0,-0.2009,-0.2008,-0.1991,-0.1992,-0.2007,-0.2037,-0.2102,-0.2147,-0.2216,-0.229,-0.231,-0.2392,-0.2397,-0.2444,-0.2481,-0.2483,-0.2527,-0.2586,-0.2593,-0.2402,-0.2483,-0.2362,-0.2273,-0.2747,-0.2747,-0.2748,-0.2748,0,-0.1973,-0.1977,-0.1958,-0.1966,-0.1998,-0.2002,-0.2044,-0.2105,-0.2149,-0.222,-0.23,-0.2302,-0.2404,-0.2395,-0.2497,-0.2509,-0.2569,-0.2613,-0.248,-0.2477,-0.2276,-0.2252,-0.2571,-0.257,-0.257,-0.257,-0.2569,0,-0.1929,-0.1928,-0.1939,-0.1937,-0.195,-0.197,-0.2002,-0.2042,-0.2112,-0.2164,-0.2233,-0.2301,-0.2398,-0.2463,-0.2486,-0.2464,-0.2549,-0.2421,-0.245,-0.2274,-0.2249,-0.2617,-0.262,-0.2575,-0.2574,-0.2573,-0.2572,0,-0.1878,-0.1881,-0.1863,-0.1896,-0.1914,-0.1927,-0.1994,-0.2015,-0.2092,-0.2174,-0.2208,-0.2348,-0.2422,-0.2479,-0.2555,-0.2482,-0.2466,-0.2425,-0.2238,-0.2234,-0.2409,-0.2411,-0.2309,-0.2303,-0.2297,-0.2293,-0.2289,0,-0.1845,-0.1815,-0.1844,-0.1853,-0.187,-0.1903,-0.1925,-0.1995,-0.2027,-0.2189,-0.2224,-0.2355,-0.2393,-0.2419,-0.2305,-0.2251,-0.2379,-0.2013,-0.1914,-0.2317,-0.236,-0.2371,-0.238,-0.1733,-0.1725,-0.1719,-0.1714,0,-0.178,-0.1783,-0.1779,-0.1798,-0.182,-0.1851,-0.1892,-0.1914,-0.2008,-0.2088,-0.2184,-0.2231,-0.2247,-0.2071,-0.1969,-0.1903,-0.1986,-0.1871,-0.233,-0.1783,-0.1768,-0.1813,-0.1842,-0.1655,-0.1661,-0.1665,-0.1669,-0.1671,-0.1743,-0.1722,-0.1703,-0.1718,-0.1755,-0.1767,-0.1741,-0.18,-0.1834,-0.1925,-0.2051,-0.2022,-0.199,-0.1685,-0.158,-0.1451,-0.1595,-0.1511,-0.1535,-0.1565,-0.142,-0.139,-0.1189,-0.1192,-0.1194,-0.1196,-0.1199,0,-0.1669,-0.1634,-0.1628,-0.162,-0.1618,-0.1673,-0.1688,-0.1635,-0.1625,-0.1759,-0.1819,-0.1559,-0.1387,-0.1346,-0.1019,-0.0933,-0.0976,-0.0917,-0.0981,-0.1034,-0.1083,-0.0919,-0.0553,-0.0552,-0.0551,-0.0551,0,0,-0.163,-0.1553,-0.153,-0.1473,-0.1479,-0.1416,-0.1392,-0.1351,-0.1374,-0.1382,-0.1344,-0.1464,-0.1332,-0.0992,-0.0877,-0.0681,-0.0897,-0.0643,-0.1147,-0.1283,-0.1333,-0.1382,-0.1181,0,0,0,0,0]},{"header":{"parameterUnit":"m.s-1","parameterCategory":2,"la1":30.2991,"la2":30.254,"lo1":-89.0895,"lo2":-89.0444,"dy":0.0017,"dx":0.0017,"nx":28,"ny":28,"refTime":"2024-08-03T09:00:00:Z","depth":"2","parameterNumber":3,"parameterNumberName":"V-component_of_CURRENTS"},"data":[0,0,0,0,0,0,0,0,0,0,0,0,0,0,0,0,0,0,0,0,0,0,0,0,0,0,0,0,0,0,0,0,0,0,0,0,0,0,0,0,0,0,0,0,0,0,0,0,0,0,0,0,0,0,0,0,0,0,0.0253,0.0255,0,0.0506,0.051,0.0513,0.0649,0.0649,0.0649,0.0649,0.0795,0.0799,0.0803,0,0,0,0,0,0,0,0,0,0,0,0,0,0.0119,0.0119,0.0252,0.0255,0.0258,0.0506,0.051,0.0514,0.0649,0.0649,0.0649,0.0649,0.0794,0.0799,0.0804,0,0,0,0,0,0,0,0,0,0,0,0,0,0.0259,0.012,0.0252,0.0352,0.0363,0.0505,0.051,0.0515,0.0649,0.0649,0.0649,0.0649,0.0793,0.0798,0.0804,0.0845,0,0,0.0823,0.0825,0,0,0,0,0,0,0,0,0.025,0.0264,0.0335,0.0345,0.0358,0.0542,0.0517,0.0618,0.0649,0.0545,0.0649,0.0649,0.0698,0.0712,0.0768,0.0852,0.0858,0.0823,0.0827,0.083,0.0831,0,0,0,0,0,0,0,0.024,0.0255,0.0358,0.0337,0.0352,0.0464,0.0482,0.0539,0.0621,0.0554,0.0564,0.0585,0.0704,0.0762,0.0772,0.0861,0.0823,0.0828,0.0832,0.0835,0.0999,0.1,0,0,0,0,0,0,0.0188,0.0244,0.0349,0.0365,0.0298,0.0465,0.0486,0.0487,0.0623,0.0643,0.0585,0.059,0.0752,0.0765,0.0777,0.0807,0.0829,0.0835,0.0839,0.0999,0.1,0.1,0,0,0,0,0,0,0.0184,0.0194,0.0339,0.0309,0.0334,0.0466,0.0467,0.0492,0.0556,0.0647,0.0666,0.0623,0.0752,0.0769,0.0839,0.0814,0.0838,0.0843,0.0998,0.0999,0.1,0.0883,0,0,0,0,0,0,0.0178,0.019,0.0189,0.0304,0.0334,0.0393,0.0468,0.0497,0.0566,0.0577,0.0685,0.0699,0.0753,0.0829,0.0845,0.0823,0.0848,0.0997,0.0998,0.1,0.0886,0.088,0.0875,0,0,0,0,0,0.0172,0.0163,0.0187,0.0201,0.0321,0.0392,0.0418,0.0516,0.0568,0.0578,0.0674,0.0696,0.0849,0.0835,0.0853,0.0832,0.0996,0.0998,0.1,0.0888,0.0881,0.0875,0,0,0,0,0,0,0.0122,0.018,0.0208,0.0221,0.0285,0.0412,0.0443,0.0514,0.0607,0.0619,0.0715,0.0736,0.0793,0.0837,0.082,0.0889,0.0922,0.0927,0.0832,0.0826,0.082,0.0769,0.0853,0,0,0,0,0,0.0102,0.01,0.0179,0.0191,0.0212,0.0329,0.0379,0.0438,0.053,0.0574,0.0653,0.0739,0.0816,0.0838,0.0913,0.0944,0.0977,0.0943,0.0938,0.0932,0.0906,0.0946,0.094,0.1006,0.1006,0.1006,0,0,0.0091,0.012,0.0125,0.0179,0.0241,0.0265,0.0359,0.0413,0.0445,0.057,0.0638,0.073,0.0829,0.0876,0.0901,0.0902,0.0936,0.0934,0.0929,0.0905,0.0947,0.094,0.0934,0.1007,0.1007,0.1007,0,0,0.0058,0.0081,0.0067,0.01,0.0164,0.0227,0.0232,0.0343,0.0399,0.0477,0.058,0.0655,0.0769,0.0827,0.0875,0.0883,0.0921,0.0907,0.0814,0.0853,0.0846,0.0841,0.0879,0.0878,0.0883,0.0882,0.0882,0,0.0046,0.0034,0.008,0.0073,0.0097,0.0195,0.0194,0.0263,0.0388,0.0413,0.0471,0.0651,0.0742,0.079,0.0809,0.0863,0.0894,0.0823,0.084,0.0835,0.0832,0.0873,0.0873,0.0877,0.0878,0.0878,0.0879,0,0.0003,-0.0004,-0.0011,-0.0001,0.0025,0.004,0.0112,0.0149,0.0231,0.03,0.0379,0.0519,0.0608,0.0659,0.0746,0.0763,0.0798,0.084,0.084,0.0817,0.0864,0.0866,0.0869,0.0871,0.0873,0.0874,0,0,-0.0026,-0.0039,-0.0041,-0.0053,-0.0015,0.0005,0.0018,0.0061,0.0079,0.0181,0.0214,0.0361,0.0425,0.0486,0.0593,0.0636,0.067,0.0717,0.0722,0.0726,0.0751,0.0786,0.0792,0.0709,0.0709,0.0709,0.0794,0,-0.0065,-0.0108,-0.01,-0.0127,-0.0139,-0.0091,-0.0082,-0.0041,0.0027,0.0078,0.0182,0.0269,0.0359,0.0421,0.0466,0.0655,0.067,0.0643,0.0799,0.0803,0.0812,0.0794,0.074,0.0812,0.0797,0.0797,0.0797,0,-0.0107,-0.0131,-0.0176,-0.0197,-0.0198,-0.02,-0.0187,-0.0165,-0.0108,-0.0055,-0.0008,0.0098,0.0195,0.0286,0.0468,0.0447,0.0566,0.0687,0.0693,0.076,0.084,0.0837,0.0817,0.0802,0.0802,0.0801,0.0801,0,-0.0146,-0.0182,-0.0222,-0.0228,-0.0236,-0.0249,-0.0243,-0.021,-0.0196,-0.014,-0.0114,-0.0016,0.0078,0.0214,0.0432,0.0466,0.0626,0.0708,0.0822,0.0827,0.0828,0.0833,0.0778,0.0778,0.0778,0.0777,0.0777,0,-0.0191,-0.0225,-0.0243,-0.0265,-0.0307,-0.0295,-0.0321,-0.0305,-0.0276,-0.0274,-0.0186,-0.0153,0.0068,0.0186,0.0372,0.0588,0.0561,0.0792,0.0843,0.079,0.0791,0.0822,0.0826,0.0781,0.078,0.0779,0.0779,0,-0.0236,-0.0248,-0.0298,-0.0321,-0.0329,-0.0359,-0.0374,-0.0388,-0.0357,-0.0348,-0.0333,-0.0232,-0.0097,0.0083,0.0333,0.0528,0.0728,0.0786,0.0705,0.0746,0.0926,0.0924,0.0973,0.0975,0.0976,0.0977,0.0979,0,-0.0268,-0.0296,-0.034,-0.0373,-0.0387,-0.0422,-0.0444,-0.0429,-0.0437,-0.0398,-0.0394,-0.0297,-0.0234,0.0099,0.0431,0.0708,0.067,0.0835,0.0901,0.0896,0.0942,0.0938,0.0933,0.0865,0.0865,0.0865,0.0865,0,-0.0326,-0.0337,-0.0376,-0.0438,-0.0473,-0.0514,-0.0538,-0.0552,-0.053,-0.052,-0.0496,-0.0449,-0.0157,0.0135,0.0483,0.0647,0.0802,0.0851,0.0846,0.0825,0.0802,0.0845,0.0843,0.0865,0.0865,0.0865,0.0865,0.0865,-0.0365,-0.0405,-0.0449,-0.051,-0.0556,-0.0599,-0.0636,-0.0639,-0.0653,-0.0634,-0.0575,-0.0418,-0.0108,0.0435,0.0598,0.0808,0.0878,0.0958,0.0955,0.0952,0.0925,0.0907,0.0984,0.0985,0.0986,0.0986,0.0987,0,-0.0406,-0.0454,-0.0518,-0.0589,-0.0659,-0.0662,-0.0699,-0.072,-0.0739,-0.0616,-0.0587,-0.0224,0.0101,0.036,0.0747,0.0983,0.0955,0.0924,0.0849,0.0849,0.085,0.0813,0.0845,0.0845,0.0845,0.0844,0,0,-0.0432,-0.05,-0.0535,-0.0664,-0.0723,-0.0789,-0.0817,-0.0819,-0.071,-0.0656,-0.0445,-0.0154,0.0255,0.0503,0.066,0.0756,0.0746,0.0739,0.0841,0.0732,0.0729,0.0866,0.0812,0,0,0,0,0]}],[{"header":{"parameterUnit":"m.s-1","parameterCategory":2,"la1":30.2991,"la2":30.254,"lo1":-89.0895,"lo2":-89.0444,"dy":0.0017,"dx":0.0017,"nx":28,"ny":28,"refTime":"2024-08-03T09:00:00:Z","depth":"4","parameterNumber":2,"parameterNumberName":"U-component_of_CURRENTS"},"data":[0,0,0,0,0,0,0,0,0,0,0,0,0,0,0,0,0,0,0,0,0,0,0,0,0,0,0,0,0,0,0,0,0,0,0,0,0,0,0,0,0,0,0,0,0,0,0,0,0,0,0,0,0,0,0,0,0,0,-0.1358,-0.1358,0,-0.14,-0.1401,-0.1401,-0.1415,-0.1415,-0.1415,-0.1414,-0.1463,-0.1465,-0.1466,0,0,0,0,0,0,0,0,0,0,0,0,0,-0.1286,-0.1288,-0.1358,-0.1358,-0.1358,-0.14,-0.1401,-0.1402,-0.1415,-0.1415,-0.1414,-0.1414,-0.1463,-0.1464,-0.1466,0,0,0,0,0,0,0,0,0,0,0,0,0,-0.1324,-0.1288,-0.1358,-0.1369,-0.137,-0.14,-0.1401,-0.1402,-0.1415,-0.1415,-0.1414,-0.1414,-0.1462,-0.1464,-0.1467,-0.1493,0,0,-0.1474,-0.1475,0,0,0,0,0,0,0,0,-0.1322,-0.1327,-0.1367,-0.1368,-0.1369,-0.14,-0.1393,-0.1432,-0.1416,-0.14,-0.1414,-0.1414,-0.1442,-0.1446,-0.1458,-0.1496,-0.1498,-0.1475,-0.1476,-0.1477,-0.1478,0,0,0,0,0,0,0,-0.1319,-0.1325,-0.1377,-0.1367,-0.1369,-0.1371,-0.1376,-0.1401,-0.1425,-0.1402,-0.1402,-0.1404,-0.1443,-0.1455,-0.1459,-0.1499,-0.1474,-0.1477,-0.1478,-0.1479,-0.1583,-0.1584,0,0,0,0,0,0,-0.1311,-0.1323,-0.1375,-0.1378,-0.1341,-0.1372,-0.1378,-0.1392,-0.1425,-0.1429,-0.1404,-0.1404,-0.1452,-0.1456,-0.1461,-0.1517,-0.1477,-0.1479,-0.1481,-0.1581,-0.1583,-0.1584,0,0,0,0,0,0,-0.1309,-0.1316,-0.1373,-0.1348,-0.1356,-0.1374,-0.139,-0.1394,-0.1423,-0.1427,-0.1431,-0.1431,-0.1451,-0.1457,-0.1495,-0.1518,-0.1481,-0.1483,-0.158,-0.1582,-0.1584,-0.1615,0,0,0,0,0,0,-0.1307,-0.1315,-0.1335,-0.1348,-0.1357,-0.14,-0.1391,-0.1395,-0.1423,-0.1424,-0.1451,-0.1454,-0.1451,-0.1491,-0.1497,-0.1521,-0.1485,-0.1578,-0.1581,-0.1583,-0.1612,-0.1617,-0.1622,0,0,0,0,0,-0.1305,-0.1328,-0.1337,-0.1343,-0.138,-0.14,-0.1406,-0.1417,-0.1425,-0.1442,-0.1459,-0.1454,-0.151,-0.1494,-0.1501,-0.1526,-0.1577,-0.158,-0.1583,-0.161,-0.1616,-0.1622,0,0,0,0,0,0,-0.13,-0.1332,-0.1341,-0.1372,-0.1389,-0.1402,-0.1422,-0.1433,-0.1462,-0.1469,-0.1474,-0.1479,-0.1514,-0.1523,-0.1505,-0.1563,-0.1542,-0.1546,-0.156,-0.1566,-0.1571,-0.1583,-0.1487,0,0,0,0,0,-0.1311,-0.1343,-0.1361,-0.1387,-0.1399,-0.1418,-0.1433,-0.1441,-0.1461,-0.1475,-0.1494,-0.1514,-0.1531,-0.155,-0.1563,-0.1606,-0.1597,-0.1626,-0.1631,-0.1635,-0.165,-0.1654,-0.1661,-0.1594,-0.1594,-0.1594,0,0,-0.1315,-0.1337,-0.1354,-0.1389,-0.1407,-0.143,-0.1427,-0.1454,-0.148,-0.1476,-0.1526,-0.1532,-0.1544,-0.1578,-0.1597,-0.1592,-0.1646,-0.1639,-0.1642,-0.1655,-0.1658,-0.1664,-0.167,-0.1596,-0.1595,-0.1595,0,0,-0.1328,-0.1361,-0.1388,-0.141,-0.1439,-0.1452,-0.1465,-0.1493,-0.1515,-0.1555,-0.1554,-0.1584,-0.1615,-0.1631,-0.1641,-0.169,-0.1665,-0.1689,-0.1735,-0.1738,-0.1743,-0.1748,-0.1727,-0.1729,-0.17,-0.17,-0.17,0,-0.1332,-0.1371,-0.1397,-0.1425,-0.1447,-0.1465,-0.1493,-0.1518,-0.1556,-0.1581,-0.1573,-0.1628,-0.1642,-0.1685,-0.17,-0.1702,-0.1686,-0.1707,-0.1744,-0.1748,-0.1752,-0.1729,-0.1732,-0.1702,-0.1702,-0.1702,-0.1702,0,-0.1355,-0.1397,-0.1414,-0.146,-0.1487,-0.1516,-0.1546,-0.1582,-0.1608,-0.1628,-0.1678,-0.1693,-0.1725,-0.1734,-0.1735,-0.1778,-0.1748,-0.1739,-0.1725,-0.1761,-0.1734,-0.1736,-0.1705,-0.1704,-0.1704,-0.1703,0,0,-0.1332,-0.1417,-0.1424,-0.1457,-0.1513,-0.1532,-0.1586,-0.1635,-0.1672,-0.1706,-0.1751,-0.1789,-0.1795,-0.1808,-0.1812,-0.1829,-0.1842,-0.1804,-0.1803,-0.1776,-0.1826,-0.1697,-0.1686,-0.183,-0.1831,-0.1832,-0.1788,0,-0.1343,-0.1407,-0.1448,-0.1506,-0.1539,-0.1585,-0.1631,-0.1679,-0.1717,-0.1764,-0.1793,-0.1826,-0.1822,-0.1835,-0.1855,-0.1845,-0.1851,-0.1853,-0.1802,-0.1801,-0.1676,-0.1686,-0.1835,-0.179,-0.179,-0.179,-0.179,0,-0.1342,-0.1391,-0.1459,-0.1541,-0.156,-0.1598,-0.1676,-0.1716,-0.1784,-0.1813,-0.1856,-0.1868,-0.191,-0.1891,-0.1899,-0.1895,-0.1871,-0.1857,-0.1854,-0.1729,-0.1676,-0.1752,-0.1793,-0.1793,-0.1793,-0.1793,-0.1793,0,-0.1303,-0.1393,-0.1453,-0.1481,-0.1574,-0.1617,-0.1661,-0.1734,-0.1773,-0.1841,-0.1864,-0.191,-0.1915,-0.1917,-0.1894,-0.1896,-0.1878,-0.1872,-0.1732,-0.1721,-0.1837,-0.1833,-0.1873,-0.1873,-0.1873,-0.1873,-0.1874,0,-0.1287,-0.1332,-0.1445,-0.1473,-0.1539,-0.1604,-0.167,-0.172,-0.179,-0.1811,-0.1879,-0.1875,-0.192,-0.1912,-0.19,-0.1807,-0.1877,-0.1737,-0.1704,-0.1848,-0.1846,-0.1836,-0.1833,-0.1872,-0.1872,-0.1872,-0.1873,0,-0.1227,-0.1305,-0.1376,-0.1489,-0.1525,-0.1565,-0.1663,-0.1695,-0.1769,-0.1796,-0.1813,-0.1852,-0.1813,-0.1841,-0.1823,-0.1779,-0.1733,-0.1684,-0.1823,-0.1799,-0.1573,-0.1572,-0.1522,-0.1517,-0.1513,-0.151,-0.1507,0,-0.1199,-0.1234,-0.1371,-0.1408,-0.1463,-0.1537,-0.1577,-0.1671,-0.1693,-0.1744,-0.1732,-0.173,-0.1735,-0.1603,-0.1649,-0.1612,-0.1597,-0.1578,-0.1596,-0.1566,-0.1539,-0.1545,-0.1549,-0.15,-0.1499,-0.1498,-0.1497,0,-0.1138,-0.1204,-0.1265,-0.1348,-0.1406,-0.146,-0.1519,-0.1526,-0.1597,-0.1681,-0.1595,-0.1564,-0.1509,-0.1484,-0.1465,-0.1445,-0.1602,-0.1535,-0.1543,-0.156,-0.1539,-0.1518,-0.1527,-0.1483,-0.1485,-0.1486,-0.1487,0,-0.1088,-0.1119,-0.1208,-0.1265,-0.1335,-0.1348,-0.14,-0.1399,-0.1428,-0.1487,-0.1436,-0.1431,-0.1459,-0.1392,-0.1374,-0.1347,-0.1332,-0.1317,-0.1337,-0.1353,-0.1322,-0.1271,-0.11,0,0,0,0,0,-0.1025,-0.1051,-0.1109,-0.1171,-0.1232,-0.1267,-0.134,-0.1387,-0.1455,-0.1353,-0.1394,-0.1329,-0.1263,-0.1265,-0.12,-0.1318,-0.1359,-0.1241,-0.1359,-0.1404,-0.142,-0.1401,0,0,0,0,0,0,-0.0984,-0.1039,-0.1077,-0.1072,-0.1087,-0.1136,-0.1175,-0.1225,-0.1179,-0.1243,-0.1204,-0.1257,-0.121,-0.1266,-0.1169,-0.1176,-0.1228,-0.1256,-0.1253,-0.1394,-0.1409,-0.1423,-0.1409,0,0,0,0,0]},{"header":{"parameterUnit":"m.s-1","parameterCategory":2,"la1":30.2991,"la2":30.254,"lo1":-89.0895,"lo2":-89.0444,"dy":0.0017,"dx":0.0017,"nx":28,"ny":28,"refTime":"2024-08-03T09:00:00:Z","depth":"4","parameterNumber":3,"parameterNumberName":"V-component_of_CURRENTS"},"data":[0,0,0,0,0,0,0,0,0,0,0,0,0,0,0,0,0,0,0,0,0,0,0,0,0,0,0,0,0,0,0,0,0,0,0,0,0,0,0,0,0,0,0,0,0,0,0,0,0,0,0,0,0,0,0,0,0,0,0.003,0.003,0,0.0066,0.0067,0.0067,0.011,0.0111,0.0111,0.0112,0.0184,0.0186,0.0187,0,0,0,0,0,0,0,0,0,0,0,0,0,0.0028,0.0028,0.003,0.003,0.0031,0.0066,0.0067,0.0067,0.011,0.0111,0.0111,0.0112,0.0184,0.0186,0.0188,0,0,0,0,0,0,0,0,0,0,0,0,0,0.0045,0.0028,0.003,0.0055,0.0057,0.0066,0.0067,0.0068,0.011,0.0111,0.0111,0.0112,0.0183,0.0186,0.0188,0.0187,0,0,0.0195,0.0196,0,0,0,0,0,0,0,0,0.0044,0.0045,0.0051,0.0053,0.0056,0.0083,0.0093,0.0109,0.011,0.0092,0.0112,0.0112,0.0152,0.0157,0.0164,0.0191,0.0194,0.0195,0.0196,0.0197,0.0198,0,0,0,0,0,0,0,0.0043,0.0044,0.0046,0.0051,0.0054,0.0074,0.0077,0.0096,0.012,0.0094,0.0096,0.0097,0.0154,0.0162,0.0166,0.0195,0.0195,0.0197,0.0198,0.0199,0.0221,0.022,0,0,0,0,0,0,0.0032,0.0043,0.0045,0.0047,0.0049,0.0073,0.0077,0.0075,0.0119,0.0125,0.0096,0.0099,0.0158,0.0164,0.0169,0.0173,0.0197,0.0199,0.0201,0.0222,0.0221,0.022,0,0,0,0,0,0,0.0032,0.0032,0.0044,0.0045,0.0047,0.0072,0.007,0.0075,0.0086,0.012,0.0128,0.0102,0.0159,0.0166,0.0181,0.0176,0.02,0.0202,0.0223,0.0221,0.022,0.0179,0,0,0,0,0,0,0.0031,0.0031,0.0028,0.0044,0.0047,0.0043,0.0069,0.0075,0.0084,0.0088,0.0127,0.0134,0.016,0.0177,0.0183,0.018,0.0204,0.0224,0.0222,0.0221,0.0181,0.0177,0.0173,0,0,0,0,0,0.0031,0.0021,0.0027,0.0028,0.004,0.0042,0.0046,0.0068,0.0083,0.0082,0.0108,0.0133,0.0173,0.0179,0.0186,0.0182,0.0224,0.0222,0.0221,0.0183,0.0178,0.0173,0,0,0,0,0,0,0.0021,0.0025,0.0032,0.0025,0.003,0.0049,0.005,0.0064,0.0083,0.0089,0.0126,0.0134,0.0144,0.0165,0.0171,0.0182,0.0202,0.0201,0.0171,0.0166,0.0161,0.0173,0.0206,0,0,0,0,0,0.0015,0.0009,0.0016,0.0011,0.0011,0.003,0.0035,0.0046,0.0064,0.0073,0.0098,0.0123,0.0141,0.0155,0.0171,0.018,0.0239,0.0181,0.0176,0.0173,0.0186,0.0271,0.0277,0.0214,0.0214,0.0214,0,0,0.0009,0.0011,0.0008,0.0008,0.0017,0.0009,0.0036,0.0037,0.0036,0.0078,0.0087,0.0108,0.0138,0.0146,0.0153,0.0166,0.0218,0.017,0.0167,0.0183,0.027,0.0277,0.0283,0.0213,0.0213,0.0214,0,0,-0.0009,-0.0004,-0.0017,-0.0017,-0.0013,-0.0005,-0.0008,0.0005,0.0018,0.0022,0.0053,0.0078,0.0094,0.0127,0.0143,0.0125,0.0189,0.0116,0.0112,0.0193,0.02,0.0207,0.0282,0.0296,0.0119,0.0118,0.0118,0,-0.0014,-0.003,-0.002,-0.0033,-0.0035,-0.0015,-0.003,-0.0018,-0.0001,0.0011,0.0017,0.0066,0.0092,0.0124,0.0115,0.0119,0.0172,0.013,0.0191,0.0199,0.0207,0.0283,0.0299,0.0116,0.0116,0.0117,0.0117,0,-0.0044,-0.0055,-0.0063,-0.0073,-0.0075,-0.0084,-0.0072,-0.0066,-0.0052,-0.0035,-0.0006,0.0035,0.0069,0.0074,0.0089,0.0144,0.0165,0.0174,0.021,0.0211,0.029,0.0307,0.0113,0.0114,0.0115,0.0115,0,0,-0.006,-0.0081,-0.0083,-0.0095,-0.0097,-0.0104,-0.0102,-0.0093,-0.0088,-0.0059,-0.0039,0.0003,0.0034,0.0055,0.0085,0.0156,0.0249,0.0182,0.0187,0.0267,0.0431,0.035,0.0362,0.027,0.0273,0.0275,0.0463,0,-0.0086,-0.0122,-0.0121,-0.0151,-0.0168,-0.015,-0.0154,-0.014,-0.012,-0.0098,-0.0034,-0.0011,0.0023,0.0037,0.0115,0.0205,0.0293,0.0197,0.041,0.0417,0.0354,0.0379,0.0284,0.0477,0.0481,0.0484,0.0486,0,-0.0116,-0.0137,-0.0173,-0.0193,-0.0198,-0.021,-0.0205,-0.0206,-0.0164,-0.0146,-0.0093,-0.0051,0.0041,0.0069,0.0269,0.0204,0.0321,0.0406,0.0415,0.037,0.0368,0.0477,0.0518,0.0516,0.0513,0.0511,0.0509,0,-0.014,-0.0171,-0.0203,-0.021,-0.0229,-0.0234,-0.024,-0.0217,-0.0219,-0.0171,-0.0162,-0.0049,0.0,0.0165,0.0318,0.0306,0.0545,0.0553,0.0606,0.0602,0.064,0.0631,0.0729,0.0729,0.0728,0.0728,0.0727,0,-0.0169,-0.0194,-0.0217,-0.0236,-0.0271,-0.0267,-0.0289,-0.0278,-0.0258,-0.0259,-0.0188,-0.0153,0.0028,0.0166,0.0328,0.0506,0.0564,0.062,0.0648,0.0614,0.06,0.0652,0.0641,0.0735,0.0733,0.0732,0.0731,0,-0.0194,-0.0208,-0.025,-0.0277,-0.0287,-0.0313,-0.0336,-0.0349,-0.0326,-0.0321,-0.0309,-0.0209,-0.004,0.0147,0.0409,0.0496,0.0688,0.0748,0.0696,0.0716,0.0697,0.0681,0.0834,0.0833,0.0832,0.0831,0.0831,0,-0.0213,-0.0236,-0.0285,-0.0317,-0.0332,-0.0366,-0.0391,-0.0384,-0.0393,-0.0351,-0.0345,-0.0211,-0.0123,0.02,0.0381,0.0676,0.0708,0.0798,0.0754,0.0697,0.0711,0.0696,0.0682,0.0829,0.0829,0.0828,0.0828,0,-0.025,-0.0266,-0.0302,-0.0365,-0.0403,-0.0443,-0.047,-0.048,-0.0466,-0.0446,-0.0352,-0.0216,-0.0041,0.0186,0.0394,0.0608,0.0725,0.0788,0.0792,0.0752,0.0693,0.0703,0.0691,0.0825,0.0825,0.0825,0.0826,0,-0.0276,-0.0311,-0.0359,-0.0413,-0.0468,-0.0506,-0.0513,-0.0498,-0.0492,-0.0431,-0.0394,-0.0208,-0.0091,0.0153,0.0356,0.0529,0.0574,0.062,0.0634,0.064,0.0497,0.0388,0.0466,0,0,0,0,0,-0.0296,-0.0341,-0.0403,-0.0467,-0.0522,-0.0548,-0.0564,-0.0559,-0.0537,-0.0471,-0.0427,-0.0256,0.0002,0.0117,0.0286,0.0319,0.0583,0.0513,0.0639,0.0805,0.0809,0.0662,0,0,0,0,0,0,-0.0313,-0.0374,-0.041,-0.0499,-0.055,-0.0604,-0.0615,-0.0596,-0.0539,-0.0489,-0.0329,-0.0253,0.0023,-0.0086,0.0278,0.0326,0.0417,0.0645,0.0647,0.0802,0.0806,0.0809,0.066,0,0,0,0,0]}]]